Les Eplatures Airport LSGC

Flugplatz Daten

Name: Les Eplatures Airport

Ident: LSGC

Lat: 47,08390045

Long: 6,792840004

Platzhöhe: 3368 ft

IataCode:

City: La Chaux-de-Fonds

Homepage: http://www.leseplaturesairport.ch

Metar

2021/10/25 19:20
LSGC 251920Z AUTO VRB02KT 9999 FEW016 06/05 Q1022

Taf

Gewünschte Webcam nicht vorhanden? Dann fügen Sie eine hinzu. Sie wird dann so schnell wie möglich freigeschaltet
Url: Title: